This is the latest recevied weather packets stored in our database for station/object DL1SEW-6. If no packets are shown the sender has not sent any weather packets the latest 10 day(s).
| Time | Temp. | Humidity | Pressure | Rain* | Wind** | Luminosity | Snow |
|---|---|---|---|---|---|---|---|
| 1777683297 | 10.56° C | 54% | 1022.6 hPa | 0 mm | - | 0 W/m² | - |
| 1777682395 | 11.67° C | 51% | 1022.6 hPa | 0 mm | - | 0 W/m² | - |
| 1777681496 | 11.67° C | 51% | 1022.6 hPa | 0 mm | - | 0 W/m² | - |
| 1777680595 | 11.67° C | 50% | 1022.6 hPa | 0 mm | - | 0 W/m² | - |
| 1777679697 | 12.22° C | 50% | 1023 hPa | 0 mm | - | 0 W/m² | - |
| 1777678795 | 12.22° C | 48% | 1023.1 hPa | 0 mm | - | 0 W/m² | - |
| 1777677899 | 12.78° C | 47% | 1023.1 hPa | 0 mm | - | 0 W/m² | - |
| 1777677000 | 13.33° C | 46% | 1023.2 hPa | 0 mm | - | 0 W/m² | - |
| 1777676102 | 13.33° C | 46% | 1023.2 hPa | 0 mm | - | 0 W/m² | - |
| 1777675199 | 14.44° C | 44% | 1023.3 hPa | 0 mm | - | 0 W/m² | - |
| 1777674300 | 14.44° C | 42% | 1023.4 hPa | 0 mm | - | 0 W/m² | - |
| 1777673398 | 14.44° C | 43% | 1023.3 hPa | 0 mm | - | 0 W/m² | - |
| 1777672499 | 14.44° C | 43% | 1023.9 hPa | 0 mm | - | 0 W/m² | - |
| 1777671600 | 14.44° C | 42% | 1023.7 hPa | 0 mm | - | 0 W/m² | - |
| 1777670700 | 15° C | 42% | 1023.8 hPa | 0 mm | - | 0 W/m² | - |
| 1777669798 | 15° C | 40% | 1023.9 hPa | 0 mm | - | 0 W/m² | - |
| 1777668898 | 15° C | 40% | 1023.8 hPa | 0 mm | - | 0 W/m² | - |
| 1777667998 | 15° C | 40% | 1023.8 hPa | 0 mm | - | 0 W/m² | - |
| 1777667097 | 15° C | 41% | 1023.6 hPa | 0 mm | - | 0 W/m² | - |
| 1777666199 | 15.56° C | 39% | 1023.6 hPa | 0 mm | - | 0 W/m² | - |
| 1777665298 | 15.56° C | 39% | 1023.4 hPa | 0 mm | - | 0 W/m² | - |
| 1777664397 | 15.56° C | 38% | 1023.3 hPa | 0 mm | - | 0 W/m² | - |
| 1777663497 | 16.67° C | 39% | 1023.1 hPa | 0 mm | - | 0 W/m² | - |
| 1777662599 | 17.22° C | 36% | 1023 hPa | 0 mm | - | 0 W/m² | - |
| 1777661697 | 17.78° C | 33% | 1022.9 hPa | 0 mm | - | 0 W/m² | - |
* Rain latest hour (hover to see other rain measurements)
** Current wind speed in m/s (hover to see current wind gust speed)